#timestamp,LO_Frequency,Hit,StdDev 
1587290415.3,286047001.8,N
1587290435.2,286047003.3,N
1587290455.0,286047003.8,N
1587290455.9,286047003.8,N
1587290475.8,286047004.2,N
1587290495.6,286047003.7,N
1587290515.4,286047003.7,N
1587290535.3,286047004.4,N
1587290555.1,286047001.7,N
1587290575.8,286047002.8,N
1587290595.7,286047004.3,N
1587290615.5,286047005.3,Y
1587290635.4,286047000.0,P
1587290655.2,286047000.5,N
1587290675.0,286047001.5,N
1587290675.9,286047001.5,N
1587290695.8,286046996.5,N
1587290715.6,286046996.4,N
1587290735.5,286046996.9,N
1587290755.3,286047000.6,N
1587290775.1,286046999.3,N
1587290795.9,286046996.8,N
1587290815.7,286046999.4,N
1587290835.5,286046997.5,N
1587290855.4,286046999.6,N
1587290875.2,286046999.5,N
1587290895.1,286046996.9,N
1587290896.0,286046996.9,N
1587290915.8,286046995.0,N
1587290935.6,286046997.9,N
1587290955.5,286046998.5,N
1587290975.3,286047002.5,N
1587290995.2,286047000.8,N
1587291015.9,286046999.5,N
1587291035.7,286046999.7,N
1587291055.6,286046999.0,N
1587291075.4,286047000.6,N
1587291095.2,286046999.0,N
1587291115.1,286046999.3,N
1587291116.0,286046999.3,N
1587291135.8,286046999.1,N
1587291155.7,286047000.3,N
1587291175.5,286046999.9,N
1587291195.3,286046998.9,N
1587291215.2,286046998.8,N
1587291235.0,286046999.8,N
1587291235.9,286046999.8,N
1587291255.8,286047002.1,N
1587291275.6,286047000.5,N
1587291295.4,286047000.2,N
1587291315.3,286047002.6,N
1587291335.1,286047001.7,N
1587291355.9,286047001.6,N
1587291375.7,286047001.8,N
1587291395.5,286047004.1,N
1587291415.4,286046998.2,N
1587291435.2,286046998.1,N
1587291455.1,286046999.2,N
1587291456.0,286046999.2,N
1587291475.8,286047000.6,N
1587291495.6,286046998.1,N
1587291515.5,286046999.1,N
1587291535.3,286046999.0,N
1587291555.2,286047000.6,N
1587291575.9,286046999.1,N
1587291595.7,286047000.3,N
1587291615.6,286046998.1,N
1587291635.4,286046999.7,N
1587291655.2,286047002.4,N
1587291675.1,286047002.2,N
1587291676.0,286047002.2,N
1587291695.8,286047002.6,N
1587291715.7,286047001.6,N
1587291735.5,286046999.8,N
1587291755.3,286047004.2,N
1587291775.2,286047004.0,N
1587291795.0,286047001.8,N
1587291795.9,286047001.8,N
1587291815.8,286047000.2,N
1587291835.6,286047002.6,N
1587291855.4,286047000.2,N
1587291875.3,286047002.2,N
1587291895.1,286046999.7,N
1587291915.9,286047002.2,N
1587291935.7,286047002.4,N
1587291955.5,286047003.5,N
1587291975.4,286047004.3,N
1587291995.2,286047002.3,N
1587292015.0,286046998.6,N
1587292015.9,286046998.6,N
1587292035.8,286047001.1,N
1587292055.6,286047000.0,N
1587292075.5,286046999.8,N
1587292095.3,286046999.4,N
1587292115.1,286046997.0,N
1587292135.9,286047012.4,Y
1587292155.7,286047009.0,P
1587292175.6,286047005.0,N
1587292195.4,286047002.9,N
1587292215.2,286047001.3,N
1587292235.1,286047002.4,N
1587292236.0,286047002.4,N
1587292255.8,286047002.4,N
1587292275.6,286047000.4,N
1587292295.5,286046998.3,N
1587292315.3,286046998.8,N
1587292335.2,286046999.0,N
1587292355.9,286046998.3,N
1587292375.7,286047000.8,N
1587292395.6,286047000.9,N
1587292415.4,286047000.4,N
1587292435.2,286046998.3,N
1587292455.1,286046999.9,N
1587292456.0,286046999.9,N
1587292475.8,286046999.8,N
1587292495.7,286047001.2,N
1587292515.7,286046996.9,N
1587292535.5,286046999.2,N
1587292555.4,286047002.7,N
1587292575.2,286047002.8,N
1587292595.0,286047000.2,N
1587292595.9,286047000.2,N
1587292615.8,286047000.8,N
1587292635.6,286046996.9,N
1587292655.5,286046997.4,N
1587292675.3,286046998.7,N
1587292695.1,286046998.3,N
1587292715.9,286047000.9,N
1587292735.7,286046999.4,N
1587292755.5,286047000.9,N
1587292775.4,286047000.0,N
1587292795.2,286047002.6,N
1587292815.1,286046998.1,N
1587292816.0,286046998.1,N
1587292835.8,286046998.1,N
1587292855.6,286047000.3,N
1587292875.5,286046999.8,N
1587292895.3,286046998.3,N
1587292915.1,286046998.2,N
1587292935.9,286047001.0,N
1587292955.7,286046999.1,N
1587292975.6,286046998.7,N
1587292995.4,286046995.5,N
1587293015.2,286046993.8,Y
1587293035.1,286046996.9,P
1587293036.0,286046996.9,N
1587293055.8,286046996.8,N
1587293075.7,286047000.6,N
1587293095.5,286047000.4,N
1587293115.3,286047002.8,N
1587293135.2,286047001.5,N
1587293155.0,286046998.6,N
1587293155.9,286046998.6,N
1587293175.8,286046995.1,N
1587293195.6,286046995.2,N
1587293215.4,286046998.9,N
1587293235.3,286046999.2,N
1587293255.1,286046996.9,N
1587293275.8,286047000.6,N
1587293295.7,286047000.0,N
1587293315.5,286047000.3,N
1587293335.4,286047000.0,N
1587293355.2,286047000.0,N
1587293375.0,286047000.5,N
1587293375.9,286047000.5,N
1587293395.8,286047001.9,N
1587293415.6,286047001.7,N
1587293435.5,286047000.5,N
1587293455.3,286047000.3,N
1587293475.1,286047000.0,N
1587293495.9,286047000.0,N
1587293515.7,286046998.6,N
1587293535.5,286047000.6,N
1587293555.4,286047000.7,N
1587293575.2,286046998.9,N
1587293595.1,286046999.1,N
1587293596.0,286046999.1,N
1587293615.8,286046997.9,N
1587293635.6,286046995.5,N
1587293655.5,286046995.2,N
1587293675.3,286046996.5,N
1587293695.2,286046998.4,N
1587293715.9,286046999.3,N
1587293735.7,286047000.0,N
1587293755.6,286047002.0,N
1587293775.4,286046999.8,N
1587293795.2,286047000.7,N
1587293815.1,286047000.7,N
1587293816.0,286047000.7,N
1587293835.8,286047001.1,N
1587293855.7,286046998.9,N
1587293875.5,286047000.0,N
1587293895.3,286046996.5,N
1587293915.2,286046995.3,N
1587293935.0,286046995.2,N
1587293935.9,286046995.2,N
1587293955.8,286046999.5,N
1587293975.6,286046995.3,N
1587293995.4,286046991.9,Y
